When you browse on this site, cookies collect data to enhance your experience and personalize the content and advertising you see.
Visit our Privacy Policy to learn more. By continuing to use the site, you agree to this use of cookies and data.
  • în România
  • Lista ţărilor
  • Pe 7 zile
  • Temperatura apei
  • Meteo pe hartă
  • Widget-uri
  • user-avatar
    Intrare

    Meteo pe oră la Elbasan

    Astăzi, 9 Decembrie, Luni

    Timp Temperatura Precipitaţii Vânt Presiune Umiditate
    00:00 +9°C° 0 mm 1 m/s 736 mmHg 83%
    01:00 +9°C° 0 mm 1 m/s 736 mmHg 81%
    02:00 +9°C° 0 mm 1 m/s 735 mmHg 80%
    03:00 +9°C° 0 mm 1 m/s 735 mmHg 79%
    04:00 +9°C° 0 mm 1 m/s 735 mmHg 78%
    05:00 +9°C° 0 mm 1 m/s 734 mmHg 78%
    06:00 +9°C° 0 mm 1 m/s 734 mmHg 77%
    07:00 +9°C° 0 mm 1 m/s 735 mmHg 77%
    08:00 +10°C° 0 mm 1 m/s 734 mmHg 72%
    09:00 +12°C° 0 mm 1 m/s 734 mmHg 67%
    10:00 +13°C° 0 mm 1 m/s 734 mmHg 62%
    11:00 +14°C° 0 mm 1 m/s 733 mmHg 61%
    12:00 +14°C° 0 mm 1 m/s 733 mmHg 59%
    13:00 +15°C° 0 mm 1 m/s 732 mmHg 58%
    14:00 +14°C° 0 mm 1 m/s 732 mmHg 62%
    15:00 +13°C° 0 mm 1 m/s 731 mmHg 67%
    16:00 +11°C° 0 mm 0 m/s 731 mmHg 72%
    17:00 +11°C° 0 mm 1 m/s 731 mmHg 72%
    18:00 +11°C° 0 mm 1 m/s 731 mmHg 72%
    19:00 +10°C° 0 mm 1 m/s 731 mmHg 72%
    20:00 +11°C° 0 mm 1 m/s 730 mmHg 72%
    21:00 +11°C° 0 mm 1 m/s 730 mmHg 71%
    22:00 +11°C° 0 mm 1 m/s 730 mmHg 71%
    23:00 +11°C° 0 mm 1 m/s 730 mmHg 72%

    Mâine, 10 Decembrie, Marţi

    Timp Temperatura Precipitaţii Vânt Presiune Umiditate
    00:00 +11°C° 0 mm 1 m/s 729 mmHg 73%
    01:00 +11°C° 0 mm 1 m/s 729 mmHg 74%
    02:00 +10°C° 0.5 mm 1 m/s 729 mmHg 78%
    03:00 +10°C° 0.5 mm 1 m/s 728 mmHg 81%
    04:00 +10°C° 0.5 mm 1 m/s 728 mmHg 85%
    05:00 +10°C° 1.3 mm 1 m/s 728 mmHg 87%
    06:00 +9°C° 1.3 mm 2 m/s 728 mmHg 89%
    07:00 +8°C° 1.3 mm 2 m/s 728 mmHg 91%
    08:00 +9°C° 1 mm 2 m/s 728 mmHg 90%
    09:00 +9°C° 1 mm 2 m/s 728 mmHg 88%
    10:00 +9°C° 1 mm 2 m/s 728 mmHg 87%
    11:00 +9°C° 0.5 mm 2 m/s 728 mmHg 85%
    12:00 +10°C° 0.5 mm 2 m/s 728 mmHg 84%
    13:00 +10°C° 0.5 mm 2 m/s 728 mmHg 82%
    14:00 +10°C° 0.4 mm 2 m/s 727 mmHg 83%
    15:00 +9°C° 0.4 mm 2 m/s 727 mmHg 84%
    16:00 +9°C° 0.4 mm 2 m/s 727 mmHg 85%
    17:00 +9°C° 0.1 mm 2 m/s 727 mmHg 85%
    18:00 +9°C° 0.1 mm 2 m/s 728 mmHg 85%
    19:00 +9°C° 0.1 mm 2 m/s 728 mmHg 85%
    20:00 +9°C° 0.2 mm 2 m/s 728 mmHg 85%
    21:00 +9°C° 0.2 mm 2 m/s 728 mmHg 85%
    22:00 +9°C° 0.2 mm 2 m/s 728 mmHg 85%
    23:00 +9°C° 0.2 mm 2 m/s 728 mmHg 85%

    Poimâine, 11 Decembrie, Miercuri

    Timp Temperatura Precipitaţii Vânt Presiune Umiditate
    00:00 +9°C° 0.2 mm 2 m/s 728 mmHg 85%
    01:00 +9°C° 0.2 mm 2 m/s 728 mmHg 85%
    02:00 +9°C° 0.1 mm 2 m/s 728 mmHg 85%
    03:00 +8°C° 0.1 mm 2 m/s 728 mmHg 85%
    04:00 +8°C° 0.1 mm 3 m/s 728 mmHg 85%
    05:00 +8°C° 0.1 mm 3 m/s 728 mmHg 84%
    06:00 +8°C° 0.1 mm 3 m/s 728 mmHg 84%
    07:00 +8°C° 0.1 mm 3 m/s 728 mmHg 83%
    08:00 +8°C° 0 mm 3 m/s 729 mmHg 79%
    09:00 +9°C° 0 mm 3 m/s 729 mmHg 75%
    10:00 +10°C° 0 mm 3 m/s 730 mmHg 71%
    11:00 +10°C° 0 mm 3 m/s 729 mmHg 69%
    12:00 +11°C° 0 mm 3 m/s 729 mmHg 66%
    13:00 +11°C° 0 mm 3 m/s 729 mmHg 63%
    14:00 +12°C° 0 mm 2 m/s 729 mmHg 67%
    15:00 +10°C° 0 mm 2 m/s 729 mmHg 71%
    16:00 +9°C° 0 mm 2 m/s 729 mmHg 75%
    17:00 +8°C° 0 mm 2 m/s 729 mmHg 76%
    18:00 +8°C° 0 mm 2 m/s 729 mmHg 78%
    19:00 +7°C° 0 mm 2 m/s 729 mmHg 80%
    20:00 +7°C° 0 mm 2 m/s 729 mmHg 80%
    21:00 +6°C° 0 mm 2 m/s 729 mmHg 80%
    22:00 +6°C° 0 mm 2 m/s 729 mmHg 80%
    23:00 +6°C° 0 mm 2 m/s 729 mmHg 81%

    12 Decembrie, Joi

    Timp Temperatura Precipitaţii Vânt Presiune Umiditate
    00:00 +6°C° 0 mm 2 m/s 729 mmHg 81%
    01:00 +6°C° 0 mm 2 m/s 729 mmHg 81%
    02:00 +6°C° 0 mm 2 m/s 729 mmHg 81%
    03:00 +6°C° 0 mm 2 m/s 729 mmHg 81%
    04:00 +6°C° 0 mm 2 m/s 728 mmHg 81%
    05:00 +7°C° 0 mm 1 m/s 728 mmHg 81%
    06:00 +6°C° 0 mm 1 m/s 729 mmHg 81%
    07:00 +6°C° 0 mm 1 m/s 729 mmHg 81%
    08:00 +8°C° 0 mm 1 m/s 729 mmHg 77%
    09:00 +9°C° 0 mm 1 m/s 729 mmHg 72%
    10:00 +10°C° 0 mm 0 m/s 729 mmHg 67%
    11:00 +11°C° 0 mm 1 m/s 729 mmHg 66%
    12:00 +12°C° 0 mm 1 m/s 728 mmHg 65%
    13:00 +12°C° 0 mm 1 m/s 728 mmHg 64%
    14:00 +11°C° 0 mm 1 m/s 728 mmHg 69%
    15:00 +10°C° 0 mm 1 m/s 728 mmHg 74%
    16:00 +8°C° 0 mm 0 m/s 728 mmHg 79%
    17:00 +8°C° 0 mm 0 m/s 728 mmHg 80%
    18:00 +8°C° 0 mm 0 m/s 728 mmHg 81%
    19:00 +7°C° 0 mm 0 m/s 728 mmHg 82%
    20:00 +7°C° 0 mm 0 m/s 728 mmHg 81%
    21:00 +7°C° 0 mm 0 m/s 728 mmHg 81%
    22:00 +7°C° 0 mm 0 m/s 728 mmHg 81%
    23:00 +8°C° 0 mm 1 m/s 728 mmHg 81%

    13 Decembrie, Vineri

    Timp Temperatura Precipitaţii Vânt Presiune Umiditate
    00:00 +8°C° 0 mm 1 m/s 728 mmHg 82%
    01:00 +8°C° 0 mm 1 m/s 728 mmHg 82%
    02:00 +8°C° 0 mm 1 m/s 728 mmHg 82%
    03:00 +8°C° 0 mm 1 m/s 728 mmHg 83%
    04:00 +8°C° 0 mm 1 m/s 728 mmHg 83%
    05:00 +8°C° 0 mm 1 m/s 728 mmHg 83%
    06:00 +8°C° 0 mm 1 m/s 728 mmHg 83%
    07:00 +8°C° 0 mm 1 m/s 728 mmHg 83%
    08:00 +8°C° 0.1 mm 1 m/s 728 mmHg 83%
    09:00 +9°C° 0.1 mm 1 m/s 728 mmHg 83%
    10:00 +9°C° 0.1 mm 1 m/s 728 mmHg 83%
    11:00 +10°C° 0.1 mm 1 m/s 728 mmHg 81%
    12:00 +10°C° 0.1 mm 1 m/s 727 mmHg 79%
    13:00 +11°C° 0.1 mm 1 m/s 727 mmHg 77%
    14:00 +10°C° 0.1 mm 1 m/s 727 mmHg 80%
    15:00 +10°C° 0.1 mm 1 m/s 727 mmHg 83%
    16:00 +10°C° 0.1 mm 1 m/s 727 mmHg 86%
    17:00 +8°C° 0.1 mm 2 m/s 726 mmHg 87%
    18:00 +8°C° 0.1 mm 2 m/s 726 mmHg 88%
    19:00 +7°C° 0.1 mm 2 m/s 726 mmHg 89%
    20:00 +7°C° 0.2 mm 2 m/s 726 mmHg 88%
    21:00 +8°C° 0.2 mm 3 m/s 725 mmHg 87%
    22:00 +7°C° 0.2 mm 4 m/s 725 mmHg 86%
    23:00 +7°C° 2.6 mm 3 m/s 724 mmHg 88%

    14 Decembrie, Sâmbătă

    Timp Temperatura Precipitaţii Vânt Presiune Umiditate
    00:00 +7°C° 2.6 mm 3 m/s 723 mmHg 90%
    01:00 +7°C° 2.6 mm 3 m/s 722 mmHg 91%
    02:00 +7°C° 2.7 mm 3 m/s 721 mmHg 92%
    03:00 +8°C° 2.7 mm 3 m/s 721 mmHg 92%
    04:00 +8°C° 2.7 mm 3 m/s 721 mmHg 93%
    05:00 +8°C° 0.9 mm 3 m/s 721 mmHg 93%
    06:00 +8°C° 0.9 mm 3 m/s 722 mmHg 93%
    07:00 +8°C° 0.9 mm 3 m/s 723 mmHg 93%
    08:00 +9°C° 0.5 mm 3 m/s 724 mmHg 91%
    09:00 +9°C° 0.5 mm 3 m/s 725 mmHg 90%
    10:00 +8°C° 0.5 mm 4 m/s 725 mmHg 88%
    11:00 +10°C° 0.3 mm 3 m/s 726 mmHg 83%
    12:00 +11°C° 0.3 mm 3 m/s 726 mmHg 79%
    13:00 +11°C° 0.3 mm 3 m/s 726 mmHg 75%
    14:00 +12°C° 0 mm 2 m/s 727 mmHg 76%
    15:00 +10°C° 0 mm 2 m/s 728 mmHg 78%
    16:00 +10°C° 0 mm 1 m/s 728 mmHg 79%
    17:00 +10°C° 0.1 mm 1 m/s 729 mmHg 79%
    18:00 +10°C° 0.1 mm 1 m/s 730 mmHg 79%
    19:00 +10°C° 0.1 mm 1 m/s 731 mmHg 78%
    20:00 +9°C° 0 mm 1 m/s 731 mmHg 77%
    21:00 +9°C° 0 mm 1 m/s 732 mmHg 76%
    22:00 +9°C° 0 mm 1 m/s 732 mmHg 74%
    23:00 +9°C° 0 mm 1 m/s 733 mmHg 75%
    Arată mai mult